[[{"header":{"parameterUnit":"m.s-1","parameterCategory":1,"la1":30.2991,"la2":30.254,"lo1":-89.0895,"lo2":-89.0444,"dy":0.0017,"dx":0.0017,"nx":28,"ny":28,"refTime":"2025-06-13T03:00:00:Z","depth":0,"parameterNumber":2,"parameterNumberName":"U-component_of_WINDS"},"data":[0,0,0,0,0,0,0,0,0,0,0,0,0,0,0,0,0,0,0,0,0,0,0,0,0,0,0,0,0,0,0,0,0,0,0,0,0,0,0,0,0,0,0,0,0,0,0,0,0,0,0,0,0,0,0,0,0,0,0.5316,0.5315,0,0.5273,0.5272,0.5272,0.52,0.5199,0.5198,0.5197,0.5153,0.5154,0.5154,0,0,0,0,0,0,0,0,0,0,0,0,0,0.5335,0.5335,0.5316,0.5315,0.5315,0.5273,0.5272,0.5272,0.5201,0.5199,0.5197,0.5196,0.5153,0.5153,0.5154,0,0,0,0,0,0,0,0,0,0,0,0,0,0.5313,0.5335,0.5316,0.5274,0.527,0.5273,0.5272,0.5271,0.5201,0.5199,0.5197,0.5195,0.5153,0.5153,0.5154,0.5194,0,0,0.5154,0.5154,0,0,0,0,0,0,0,0,0.5314,0.5312,0.5281,0.5277,0.5272,0.524,0.5263,0.5245,0.5201,0.5227,0.5196,0.5194,0.5184,0.5181,0.5178,0.5192,0.519,0.5154,0.5154,0.5154,0.5154,0,0,0,0,0,0,0,0.5316,0.5314,0.5299,0.528,0.5275,0.5257,0.5252,0.5259,0.5217,0.5225,0.522,0.5215,0.5181,0.5178,0.5176,0.5189,0.5154,0.5154,0.5154,0.5154,0.5231,0.5233,0,0,0,0,0,0,0.5324,0.5316,0.53,0.5297,0.5289,0.5259,0.5253,0.5252,0.5217,0.521,0.5217,0.5212,0.5178,0.5176,0.5174,0.5216,0.5154,0.5154,0.5154,0.5229,0.5231,0.5233,0,0,0,0,0,0,0.5325,0.5323,0.5302,0.5305,0.5301,0.526,0.5261,0.5253,0.5249,0.5211,0.5203,0.5221,0.5177,0.5174,0.5189,0.5214,0.5154,0.5154,0.5226,0.523,0.5232,0.5303,0,0,0,0,0,0,0.5325,0.5324,0.5339,0.5306,0.5301,0.5317,0.5262,0.5253,0.5249,0.5242,0.5213,0.5206,0.5175,0.5189,0.5189,0.5213,0.5154,0.5224,0.5228,0.5231,0.5298,0.5308,0.5316,0,0,0,0,0,0.5326,0.5362,0.534,0.5339,0.5319,0.5319,0.5316,0.5279,0.5252,0.5266,0.5241,0.5207,0.5212,0.5191,0.519,0.5215,0.5222,0.5227,0.5231,0.5294,0.5306,0.5316,0,0,0,0,0,0,0.54,0.5357,0.5333,0.5358,0.5343,0.5307,0.5324,0.5294,0.5286,0.528,0.5235,0.5229,0.5249,0.5234,0.5211,0.525,0.5211,0.5216,0.5259,0.527,0.5279,0.5282,0.5155,0,0,0,0,0,0.5419,0.5423,0.5385,0.5411,0.5404,0.5366,0.5364,0.5337,0.5319,0.5313,0.5289,0.5273,0.527,0.527,0.5266,0.5296,0.5287,0.5312,0.5321,0.5329,0.5333,0.5345,0.5355,0.5248,0.5248,0.5248,0,0,0.5459,0.5436,0.5441,0.5425,0.541,0.5413,0.5361,0.5368,0.537,0.5314,0.5325,0.5307,0.5286,0.5308,0.5316,0.5296,0.536,0.5335,0.5341,0.5341,0.535,0.536,0.5369,0.5251,0.525,0.525,0,0,0.5533,0.5517,0.5535,0.552,0.5497,0.5471,0.5476,0.5444,0.5429,0.544,0.5397,0.5399,0.5396,0.5382,0.5375,0.544,0.5408,0.5441,0.5487,0.5499,0.5508,0.5515,0.5536,0.5544,0.5445,0.5445,0.5445,0,0.5585,0.5589,0.5549,0.5557,0.555,0.5499,0.5516,0.5504,0.5482,0.5478,0.5455,0.5448,0.5431,0.5447,0.5463,0.546,0.5462,0.5443,0.551,0.5517,0.5523,0.5542,0.555,0.5449,0.5449,0.5448,0.5448,0,0.5653,0.5656,0.5674,0.5651,0.5647,0.566,0.5621,0.5621,0.5594,0.557,0.558,0.5557,0.5546,0.5548,0.5522,0.556,0.5547,0.5518,0.5478,0.5537,0.5555,0.5562,0.5455,0.5453,0.5452,0.5451,0,0,0.5772,0.5726,0.5733,0.572,0.569,0.5692,0.5702,0.569,0.569,0.5676,0.5682,0.5679,0.5651,0.5643,0.5615,0.5626,0.5676,0.5595,0.5593,0.5609,0.5713,0.5733,0.5743,0.5654,0.5656,0.5657,0.5713,0,0.5838,0.5852,0.5815,0.5838,0.5839,0.5789,0.5797,0.5779,0.5757,0.5754,0.5729,0.5727,0.5692,0.5685,0.5694,0.5668,0.5696,0.5664,0.5658,0.5658,0.5663,0.5752,0.5775,0.5829,0.572,0.5721,0.5722,0,0.5917,0.5904,0.5927,0.5893,0.5892,0.59,0.5885,0.5883,0.5861,0.5844,0.5833,0.58,0.5806,0.5769,0.5775,0.5754,0.575,0.5737,0.5738,0.5734,0.5693,0.5749,0.5846,0.5854,0.5733,0.5732,0.5731,0,0.5998,0.5988,0.5999,0.599,0.5952,0.5958,0.5942,0.5918,0.5913,0.5899,0.5895,0.5883,0.5876,0.5868,0.5831,0.5808,0.5842,0.5802,0.5826,0.5827,0.5834,0.5834,0.593,0.5835,0.5835,0.5835,0.5835,0,0.6074,0.6089,0.6034,0.6041,0.6056,0.6013,0.6029,0.6008,0.5987,0.5988,0.5945,0.5947,0.59,0.5897,0.5869,0.5877,0.5875,0.586,0.5852,0.5863,0.5865,0.5858,0.5853,0.5837,0.5837,0.5836,0.5836,0,0.6167,0.6131,0.614,0.6102,0.6092,0.6105,0.6072,0.6076,0.605,0.6052,0.605,0.601,0.6003,0.5966,0.5952,0.5933,0.5951,0.5936,0.5958,0.5952,0.5978,0.5975,0.6071,0.6081,0.5982,0.5983,0.5984,0,0.6217,0.6227,0.6189,0.6186,0.6172,0.6169,0.6162,0.612,0.6115,0.6089,0.6096,0.6086,0.6075,0.6067,0.6036,0.6024,0.6007,0.6042,0.6005,0.6015,0.6005,0.6004,0.6004,0.6049,0.6051,0.6052,0.6052,0,0.6308,0.6289,0.6281,0.6266,0.6259,0.6246,0.623,0.623,0.6183,0.6179,0.6171,0.6163,0.6147,0.6137,0.6119,0.6102,0.6069,0.6064,0.6069,0.6079,0.609,0.6082,0.5977,0.6062,0.6061,0.606,0.606,0.6059,0.6379,0.6384,0.6358,0.635,0.6333,0.6318,0.6319,0.6293,0.6286,0.6269,0.6244,0.6239,0.6215,0.6187,0.6173,0.6168,0.6149,0.6157,0.6158,0.616,0.6164,0.6092,0.6165,0.6164,0.6164,0.6164,0.6164,0,0.6466,0.6446,0.6439,0.6416,0.641,0.6379,0.6359,0.6355,0.6351,0.6331,0.632,0.631,0.6299,0.6267,0.6253,0.6255,0.6239,0.6252,0.6251,0.6247,0.6183,0.6179,0.6265,0.6265,0.6265,0.6265,0.6265,0.6265,0.651,0.6517,0.6495,0.6492,0.6472,0.6466,0.6457,0.6442,0.6426,0.6416,0.6406,0.6385,0.6359,0.6343,0.6331,0.6322,0.6317,0.6335,0.6321,0.6262,0.6252,0.6242,0.6239,0.6335,0.6335,0.6385,0.6385,0.6385]},{"header":{"parameterUnit":"m.s-1","parameterCategory":1,"la1":30.2991,"la2":30.254,"lo1":-89.0895,"lo2":-89.0444,"dy":0.0017,"dx":0.0017,"nx":28,"ny":28,"refTime":"2025-06-13T03:00:00:Z","depth":0,"parameterNumber":3,"parameterNumberName":"V-component_of_WINDS"},"data":[0,0,0,0,0,0,0,0,0,0,0,0,0,0,0,0,0,0,0,0,0,0,0,0,0,0,0,0,0,0,0,0,0,0,0,0,0,0,0,0,0,0,0,0,0,0,0,0,0,0,0,0,0,0,0,0,0,0,5.7938,5.7938,0,5.7922,5.7922,5.7922,5.7817,5.7815,5.7812,5.781,5.7795,5.7797,5.7799,0,0,0,0,0,0,0,0,0,0,0,0,0,5.7877,5.7879,5.7938,5.7938,5.7937,5.7922,5.7922,5.7922,5.7818,5.7815,5.7812,5.7809,5.7794,5.7797,5.7799,0,0,0,0,0,0,0,0,0,0,0,0,0,5.7887,5.7879,5.7938,5.7884,5.7879,5.7922,5.7922,5.7922,5.7818,5.7815,5.7811,5.7807,5.7794,5.7796,5.7799,5.7894,0,0,5.7808,5.781,0,0,0,0,0,0,0,0,5.7886,5.7889,5.7892,5.7887,5.7882,5.7868,5.7895,5.7913,5.7819,5.7841,5.781,5.7805,5.7822,5.7823,5.7828,5.7893,5.7893,5.7809,5.781,5.7812,5.7813,0,0,0,0,0,0,0,5.7886,5.7889,5.7931,5.7892,5.7886,5.786,5.7857,5.7898,5.7853,5.7839,5.7831,5.7831,5.7819,5.7826,5.7827,5.7893,5.7809,5.7811,5.7813,5.7814,5.8032,5.8036,0,0,0,0,0,0,5.7893,5.7889,5.7932,5.7931,5.7875,5.7864,5.7861,5.7876,5.7853,5.7845,5.7834,5.7826,5.7822,5.7824,5.7826,5.7933,5.7812,5.7814,5.7816,5.8028,5.8033,5.8037,0,0,0,0,0,0,5.7892,5.7897,5.7933,5.7908,5.7911,5.7869,5.7887,5.7878,5.7884,5.7849,5.7841,5.7849,5.7819,5.7822,5.7877,5.7931,5.7816,5.7819,5.8023,5.803,5.8035,5.8149,0,0,0,0,0,0,5.789,5.7898,5.7933,5.791,5.7912,5.7984,5.7891,5.788,5.789,5.7879,5.7861,5.7854,5.7817,5.7873,5.788,5.7933,5.7821,5.8018,5.8026,5.8033,5.814,5.8158,5.8174,0,0,0,0,0,5.7889,5.7967,5.7936,5.7942,5.7956,5.7988,5.7989,5.7944,5.7895,5.7929,5.7907,5.7855,5.7925,5.788,5.7887,5.7941,5.8015,5.8024,5.8033,5.8133,5.8155,5.8173,0,0,0,0,0,0,5.7999,5.7963,5.7928,5.8001,5.7998,5.797,5.8013,5.7969,5.7981,5.797,5.7914,5.7911,5.7974,5.7964,5.7914,5.8031,5.7961,5.7971,5.8035,5.8055,5.8072,5.8071,5.7823,0,0,0,0,0,5.8032,5.8061,5.8028,5.8095,5.8096,5.8055,5.8067,5.8032,5.8027,5.8026,5.8007,5.8004,5.8025,5.804,5.8058,5.8139,5.8133,5.818,5.8197,5.8211,5.822,5.826,5.828,5.8067,5.8067,5.8067,0,0,5.81,5.8084,5.8106,5.8117,5.8111,5.8141,5.8055,5.8091,5.8112,5.8031,5.8081,5.8068,5.8061,5.8129,5.8158,5.8122,5.8278,5.8222,5.8234,5.8235,5.8271,5.8291,5.8309,5.8073,5.8072,5.8071,0,0,5.8239,5.8231,5.8284,5.828,5.8271,5.8243,5.8256,5.8235,5.8222,5.8271,5.821,5.8236,5.8274,5.827,5.8274,5.841,5.8362,5.8418,5.8504,5.8544,5.856,5.8575,5.8621,5.8639,5.8428,5.8428,5.8428,0,5.8324,5.8367,5.8318,5.8357,5.8363,5.8291,5.8344,5.8342,5.834,5.8346,5.8306,5.835,5.8341,5.8406,5.8439,5.8446,5.8457,5.8418,5.8562,5.8576,5.8589,5.8632,5.865,5.8435,5.8434,5.8433,5.8433,0,5.8471,5.8502,5.8547,5.8545,5.8556,5.8603,5.856,5.8578,5.8543,5.8519,5.8569,5.8556,5.8568,5.8581,5.8548,5.8642,5.8619,5.8572,5.85,5.8617,5.8656,5.8673,5.8444,5.8442,5.844,5.8438,0,0,5.8678,5.8648,5.8665,5.8662,5.8646,5.8669,5.8712,5.8723,5.8738,5.874,5.8773,5.8806,5.8762,5.8766,5.8731,5.8767,5.8872,5.8714,5.8713,5.8742,5.8972,5.9005,5.9026,5.8842,5.8845,5.8847,5.8971,0,5.8809,5.8879,5.8835,5.8912,5.8938,5.887,5.8907,5.8902,5.8881,5.8901,5.8878,5.8901,5.8842,5.8844,5.8876,5.8853,5.8917,5.8844,5.887,5.8872,5.8871,5.9047,5.9082,5.92,5.8987,5.899,5.8991,0,5.897,5.8976,5.9055,5.9032,5.9042,5.9076,5.9081,5.9102,5.9094,5.9076,5.908,5.9037,5.9077,5.9008,5.9061,5.9012,5.9021,5.9012,5.9015,5.9013,5.8937,5.9047,5.9237,5.9254,5.9016,5.9014,5.9012,0,5.9109,5.9138,5.9188,5.9188,5.9163,5.9188,5.918,5.9168,5.9177,5.9183,5.9187,5.9199,5.9204,5.9213,5.9174,5.9128,5.9232,5.916,5.9217,5.9218,5.9239,5.9238,5.9431,5.9251,5.925,5.925,5.925,0,5.9257,5.9307,5.9249,5.928,5.9334,5.9284,5.9339,5.9323,5.9313,5.9339,5.9282,5.9308,5.9255,5.9275,5.9245,5.9293,5.9296,5.9282,5.9273,5.9286,5.9287,5.9289,5.9278,5.9255,5.9254,5.9253,5.9252,0,5.942,5.9383,5.9433,5.9405,5.94,5.944,5.9417,5.9444,5.9419,5.9453,5.9458,5.942,5.9441,5.9403,5.942,5.9399,5.9465,5.9444,5.9467,5.9459,5.9517,5.9511,5.9715,5.9738,5.9546,5.9548,5.955,0,5.9516,5.9552,5.9528,5.9541,5.9535,5.9557,5.9565,5.9517,5.9528,5.9521,5.9549,5.9565,5.9575,5.9612,5.9586,5.9598,5.9575,5.9646,5.9577,5.9588,5.9573,5.957,5.9572,5.966,5.9662,5.9664,5.9665,0,5.9688,5.9668,5.9681,5.9688,5.97,5.9703,5.9703,5.9717,5.9667,5.9682,5.9702,5.971,5.9726,5.9742,5.9748,5.9738,5.9693,5.9688,5.9701,5.9713,5.9723,5.9715,5.9502,5.9683,5.9681,5.968,5.9679,5.9678,5.9818,5.9846,5.9833,5.9849,5.9844,5.9845,5.9868,5.9846,5.9861,5.987,5.9841,5.9868,5.9858,5.9861,5.9857,5.9876,5.9845,5.9865,5.9869,5.9874,5.9882,5.9722,5.9878,5.9877,5.9877,5.9876,5.9876,0,5.9984,5.9972,5.9988,5.9988,6.0001,5.9958,5.9955,5.9969,5.9992,5.9987,5.9997,6.0019,6.0035,6.001,6.0021,6.0042,6.0021,6.0046,6.0042,6.004,5.9911,5.9897,6.0062,6.0062,6.0062,6.0062,6.0062,6.0062,6.0072,6.0117,6.0095,6.0136,6.0124,6.0148,6.015,6.015,6.0144,6.0172,6.0183,6.0167,6.0154,6.0163,6.0175,6.0167,6.0173,6.0204,6.0189,6.0068,6.005,6.0032,6.0019,6.0207,6.0207,6.0316,6.0318,6.0318]}]]